This is the latest recevied weather packets stored in our database for station/object HB9TJR-3. If no packets are shown the sender has not sent any weather packets the latest 10 day(s).
| Time | Temp. | Humidity | Pressure | Rain* | Wind** | Luminosity | Snow |
|---|---|---|---|---|---|---|---|
| 1787690851 | 17.78° C | 70% | 868 hPa | 0 mm | - | - | - |
| 1787689925 | 17.78° C | 70% | 867.9 hPa | 0 mm | - | - | - |
| 1787689891 | 17.78° C | 70% | 867.9 hPa | 0 mm | - | - | - |
| 1787688931 | 17.78° C | 71% | 867.9 hPa | 0 mm | - | - | - |
| 1787687971 | 17.78° C | 73% | 867.8 hPa | 0 mm | - | - | - |
| 1787687011 | 17.78° C | 73% | 867.7 hPa | 0 mm | - | - | - |
| 1787685091 | 17.78° C | 72% | 867.4 hPa | 0 mm | - | - | - |
| 1787684162 | 17.78° C | 71% | 867.3 hPa | 0 mm | - | - | - |
| 1787684131 | 17.78° C | 71% | 867.3 hPa | 0 mm | - | - | - |
| 1787683171 | 17.78° C | 72% | 867.1 hPa | 0 mm | - | - | - |
| 1787682211 | 17.78° C | 76% | 867.1 hPa | 0 mm | - | - | - |
| 1787681251 | 17.78° C | 78% | 867 hPa | 0 mm | - | - | - |
| 1787680291 | 18.33° C | 78% | 866.9 hPa | 0 mm | - | - | - |
| 1787679331 | 18.33° C | 76% | 866.7 hPa | 0 mm | - | - | - |
| 1787678371 | 18.33° C | 75% | 866.7 hPa | 0 mm | - | - | - |
| 1787677411 | 18.33° C | 74% | 866.6 hPa | 0 mm | - | - | - |
| 1787676451 | 18.33° C | 74% | 866.5 hPa | 0 mm | - | - | - |
| 1787675491 | 18.89° C | 72% | 866.6 hPa | 0 mm | - | - | - |
| 1787674531 | 18.89° C | 72% | 866.5 hPa | 0 mm | - | - | - |
| 1787673571 | 18.89° C | 69% | 866.5 hPa | 0 mm | - | - | - |
| 1787672611 | 19.44° C | 70% | 866.4 hPa | 0 mm | - | - | - |
| 1787671651 | 19.44° C | 71% | 866.6 hPa | 0 mm | - | - | - |
| 1787670691 | 19.44° C | 68% | 866.5 hPa | 0 mm | - | - | - |
| 1787669731 | 18.89° C | 70% | 866.5 hPa | 0 mm | - | - | - |
| 1787668771 | 18.89° C | 70% | 866.4 hPa | 0 mm | - | - | - |
* Rain latest hour (hover to see other rain measurements)
** Current wind speed in m/s (hover to see current wind gust speed)